Total_Precipitation_Accumulation
0.53 0.41 0.45 0.46 0.35 0.44 0.73 0.73 0.75 0.46 0.34 0.33 0.31 0.28 0.25 0.27 0.27 0.27 0.28 0.30 0.34 0.37 0.40 0.43 0.42 0.41 0.44 0.50 0.57 0.59 0.61 0.68 0.72 0.74 0.77 0.87 0.91 0.87 0.87 0.89 0.95 0.99 1.00 1.05
0.56 0.34 0.34 0.36 0.29 0.33 0.42 0.45 0.51 0.40 0.36 0.26 0.25 0.23 0.23 0.25 0.23 0.21 0.23 0.24 0.26 0.30 0.36 0.39 0.37 0.37 0.37 0.40 0.45 0.47 0.48 0.54 0.61 0.68 0.77 0.87 0.94 0.91 0.88 0.86 0.91 0.98 0.98 1.03
0.53 0.27 0.38 0.42 0.31 0.35 0.38 0.37 0.43 0.46 0.38 0.24 0.23 0.22 0.22 0.23 0.20 0.18 0.18 0.18 0.19 0.22 0.28 0.29 0.29 0.32 0.34 0.36 0.39 0.42 0.41 0.43 0.50 0.63 0.73 0.78 0.84 0.89 0.90 0.90 1.00 1.10 1.10 1.11
0.60 0.40 0.47 0.28 0.19 0.24 0.29 0.32 0.34 0.33 0.25 0.19 0.20 0.21 0.21 0.21 0.18 0.16 0.15 0.14 0.15 0.18 0.21 0.21 0.22 0.24 0.26 0.27 0.33 0.42 0.45 0.47 0.51 0.58 0.68 0.78 0.83 0.88 0.94 0.96 1.05 1.14 1.19 1.21
0.73 0.53 0.28 0.14 0.11 0.16 0.26 0.31 0.21 0.19 0.17 0.12 0.13 0.15 0.15 0.17 0.16 0.15 0.15 0.14 0.14 0.16 0.17 0.16 0.18 0.21 0.21 0.22 0.28 0.37 0.43 0.48 0.48 0.53 0.63 0.74 0.84 0.92 0.96 1.00 1.06 1.11 1.10 1.08
0.82 0.64 0.33 0.16 0.07 0.08 0.22 0.41 0.17 0.12 0.12 0.11 0.13 0.19 0.17 0.15 0.15 0.13 0.14 0.18 0.17 0.16 0.16 0.16 0.18 0.20 0.23 0.25 0.29 0.37 0.41 0.45 0.47 0.50 0.58 0.68 0.79 0.88 0.93 0.95 0.95 0.95 0.94 0.89
0.68 0.62 0.27 0.12 0.06 0.08 0.34 0.49 0.20 0.13 0.12 0.13 0.16 0.17 0.14 0.11 0.10 0.12 0.13 0.17 0.22 0.24 0.25 0.26 0.28 0.29 0.30 0.32 0.35 0.38 0.42 0.47 0.49 0.52 0.57 0.66 0.71 0.74 0.77 0.76 0.73 0.72 0.71 0.68
0.41 0.57 0.33 0.15 0.14 0.24 0.31 0.21 0.16 0.15 0.15 0.18 0.20 0.17 0.14 0.12 0.11 0.11 0.14 0.18 0.23 0.28 0.29 0.32 0.33 0.35 0.36 0.39 0.40 0.41 0.43 0.47 0.52 0.54 0.53 0.54 0.56 0.60 0.58 0.57 0.57 0.56 0.57 0.57
0.29 0.31 0.22 0.18 0.22 0.24 0.23 0.19 0.15 0.14 0.14 0.16 0.22 0.22 0.20 0.17 0.14 0.12 0.13 0.16 0.20 0.23 0.24 0.25 0.30 0.36 0.40 0.41 0.40 0.39 0.42 0.43 0.44 0.45 0.45 0.46 0.46 0.47 0.49 0.50 0.51 0.53 0.53 0.54
0.25 0.22 0.18 0.17 0.19 0.17 0.16 0.16 0.14 0.14 0.15 0.16 0.18 0.21 0.20 0.20 0.18 0.17 0.16 0.13 0.14 0.16 0.18 0.19 0.21 0.25 0.30 0.32 0.32 0.30 0.33 0.32 0.32 0.33 0.35 0.37 0.38 0.39 0.42 0.45 0.45 0.46 0.47 0.47
0.23 0.18 0.14 0.13 0.12 0.11 0.10 0.09 0.10 0.12 0.13 0.14 0.14 0.17 0.19 0.19 0.16 0.17 0.16 0.14 0.12 0.12 0.12 0.13 0.14 0.16 0.20 0.22 0.23 0.23 0.24 0.24 0.24 0.25 0.31 0.35 0.36 0.37 0.40 0.43 0.48 0.49 0.46 0.45
0.26 0.17 0.17 0.15 0.10 0.08 0.09 0.08 0.08 0.10 0.12 0.12 0.12 0.15 0.16 0.16 0.14 0.14 0.16 0.16 0.13 0.12 0.12 0.12 0.13 0.13 0.14 0.18 0.21 0.23 0.22 0.22 0.23 0.22 0.26 0.34 0.38 0.38 0.42 0.45 0.51 0.55 0.54 0.50
0.17 0.14 0.12 0.11 0.10 0.09 0.09 0.08 0.08 0.09 0.10 0.10 0.09 0.11 0.13 0.14 0.14 0.14 0.14 0.13 0.12 0.12 0.12 0.12 0.13 0.14 0.14 0.16 0.19 0.21 0.22 0.24 0.25 0.25 0.28 0.32 0.35 0.36 0.37 0.38 0.43 0.49 0.52 0.52
0.09 0.08 0.09 0.07 0.08 0.08 0.08 0.07 0.07 0.07 0.07 0.08 0.08 0.09 0.10 0.11 0.13 0.14 0.15 0.16 0.15 0.13 0.12 0.12 0.13 0.12 0.12 0.13 0.16 0.19 0.23 0.25 0.25 0.25 0.29 0.32 0.35 0.37 0.35 0.33 0.33 0.35 0.40 0.46
0.06 0.06 0.07 0.06 0.05 0.05 0.05 0.05 0.05 0.06 0.05 0.06 0.07 0.08 0.09 0.11 0.14 0.17 0.16 0.15 0.15 0.14 0.12 0.11 0.12 0.12 0.12 0.13 0.15 0.17 0.21 0.22 0.23 0.25 0.28 0.31 0.33 0.36 0.35 0.33 0.32 0.30 0.30 0.36
0.07 0.05 0.06 0.05 0.05 0.04 0.05 0.05 0.05 0.06 0.07 0.07 0.09 0.10 0.11 0.13 0.15 0.17 0.17 0.16 0.16 0.15 0.13 0.12 0.11 0.11 0.12 0.14 0.16 0.17 0.18 0.22 0.23 0.23 0.25 0.28 0.30 0.33 0.34 0.32 0.31 0.29 0.28 0.29
0.10 0.09 0.08 0.08 0.07 0.06 0.06 0.07 0.07 0.07 0.08 0.09 0.10 0.13 0.13 0.14 0.16 0.18 0.18 0.17 0.17 0.17 0.16 0.14 0.14 0.12 0.13 0.15 0.16 0.18 0.19 0.20 0.23 0.22 0.23 0.26 0.29 0.31 0.34 0.35 0.34 0.31 0.29 0.33
0.12 0.13 0.13 0.13 0.12 0.10 0.09 0.09 0.09 0.09 0.09 0.10 0.10 0.11 0.13 0.15 0.17 0.18 0.18 0.18 0.18 0.18 0.17 0.17 0.17 0.16 0.14 0.15 0.17 0.19 0.20 0.20 0.20 0.21 0.22 0.26 0.30 0.31 0.31 0.32 0.33 0.32 0.29 0.33
0.12 0.15 0.16 0.15 0.14 0.14 0.13 0.12 0.13 0.12 0.12 0.12 0.13 0.13 0.14 0.15 0.16 0.18 0.19 0.20 0.19 0.20 0.20 0.19 0.21 0.18 0.15 0.17 0.21 0.21 0.21 0.21 0.22 0.22 0.24 0.28 0.30 0.28 0.29 0.30 0.31 0.31 0.30 0.30
0.16 0.16 0.18 0.17 0.16 0.16 0.15 0.14 0.13 0.12 0.13 0.13 0.13 0.14 0.16 0.17 0.17 0.18 0.19 0.19 0.20 0.22 0.22 0.22 0.21 0.17 0.16 0.18 0.24 0.21 0.21 0.23 0.25 0.26 0.27 0.28 0.28 0.28 0.28 0.30 0.31 0.31 0.30 0.30
0.16 0.16 0.17 0.18 0.18 0.17 0.17 0.17 0.15 0.14 0.13 0.13 0.14 0.15 0.16 0.17 0.17 0.18 0.18 0.18 0.18 0.18 0.18 0.21 0.19 0.17 0.19 0.23 0.28 0.25 0.23 0.25 0.27 0.28 0.29 0.29 0.30 0.30 0.31 0.31 0.32 0.32 0.32 0.32
0.16 0.17 0.17 0.18 0.18 0.18 0.17 0.15 0.15 0.16 0.15 0.15 0.15 0.15 0.15 0.16 0.17 0.17 0.16 0.17 0.17 0.19 0.18 0.16 0.17 0.21 0.27 0.31 0.27 0.25 0.26 0.28 0.30 0.31 0.31 0.30 0.31 0.32 0.33 0.33 0.34 0.34 0.34 0.34
0.16 0.16 0.16 0.16 0.16 0.16 0.16 0.16 0.16 0.17 0.17 0.17 0.17 0.17 0.17 0.18 0.18 0.18 0.18 0.16 0.16 0.18 0.17 0.17 0.21 0.26 0.30 0.29 0.25 0.24 0.27 0.29 0.30 0.30 0.31 0.31 0.32 0.33 0.35 0.35 0.35 0.34 0.35 0.34
0.14 0.13 0.14 0.14 0.14 0.15 0.15 0.16 0.17 0.16 0.16 0.16 0.16 0.17 0.17 0.19 0.18 0.17 0.17 0.18 0.18 0.19 0.18 0.19 0.23 0.25 0.26 0.24 0.22 0.24 0.25 0.27 0.28 0.30 0.30 0.32 0.33 0.34 0.34 0.33 0.32 0.30 0.30 0.31
0.11 0.12 0.12 0.13 0.13 0.13 0.14 0.15 0.15 0.15 0.15 0.15 0.15 0.15 0.16 0.17 0.18 0.17 0.16 0.16 0.17 0.18 0.17 0.17 0.20 0.22 0.22 0.20 0.21 0.22 0.23 0.25 0.28 0.30 0.31 0.31 0.31 0.32 0.32 0.31 0.30 0.29 0.27 0.26
0.08 0.09 0.09 0.10 0.12 0.13 0.14 0.16 0.18 0.16 0.15 0.16 0.15 0.14 0.13 0.13 0.14 0.15 0.16 0.17 0.17 0.18 0.17 0.16 0.17 0.19 0.20 0.20 0.21 0.22 0.23 0.23 0.24 0.25 0.25 0.27 0.29 0.30 0.30 0.29 0.27 0.27 0.26 0.25
0.06 0.06 0.06 0.08 0.10 0.10 0.11 0.14 0.17 0.18 0.17 0.17 0.16 0.14 0.13 0.14 0.15 0.16 0.17 0.17 0.17 0.17 0.16 0.17 0.18 0.20 0.21 0.21 0.22 0.22 0.22 0.22 0.22 0.23 0.24 0.25 0.27 0.28 0.28 0.28 0.28 0.27 0.26 0.25